AO-07 1 07530U 74089B 15126.89047113 -.00000042 00000-0 90844-5 0 9998 2 07530 101.5173 103.6086 0012259 025.6372 348.8290 12.53613949852083 FO-29 1 24278U 96046B 15126.88322021 -.00000014 00000-0 20622-4 0 9991 2 24278 098.5368 101.2719 0350478 177.7400 213.1424 13.53050869924448 SO-33 1 25509U 98061B 15126.40500072 .00000337 00000-0 55867-4 0 9996 2 25509 031.4302 128.4340 0347790 067.0616 296.6319 14.29988299863435 RS-22 1 27939U 03042A 15127.80885951 .00000682 00000-0 13257-3 0 9996 2 27939 097.8404 291.5123 0013703 152.4093 207.7845 14.65996746620272 HO-68 1 36122U 09072B 15127.80828203 -.00000060 00000-0 -43517-4 0 9991 2 36122 100.1984 174.0487 0007183 208.7972 151.2728 13.16326392259147 AO-73 1 39444U 13066AE 15127.12796862 .00001834 00000-0 24204-3 0 9998 2 39444 097.7338 191.3883 0058509 269.4605 089.9903 14.80078449 77349 EO-79 1 40025U 14033R 15127.70964414 .00001813 00000-0 20849-3 0 9992 2 40025 097.9567 027.9122 0012293 323.6763 036.3625 14.86998318 47784 UO-11 1 14781U 84021B 15127.60118289 .00000875 00000-0 11586-3 0 9991 2 14781 097.8053 185.6753 0008229 193.9805 166.1181 14.82344035676014 AO-16 1 20439U 90005D 15127.48758500 .00000156 00000-0 73686-4 0 9991 2 20439 098.5386 064.2850 0009681 282.9647 128.0353 14.32533393320919 LO-19 1 20442U 90005G 15127.41897451 .00000165 00000-0 76693-4 0 9998 2 20442 098.5096 063.8975 0010569 269.6022 090.3951 14.32726882321104 AO-27 1 22825U 93061C 15126.84267014 .00000139 00000-0 71408-4 0 9992 2 22825 098.7054 076.9489 0009557 072.0923 314.1926 14.29872062127036 IO-26 1 22826U 93061D 15127.46301226 .00000169 00000-0 82619-4 0 9995 2 22826 098.6997 077.7417 0010025 063.2830 296.9377 14.30188263127260 GO-32 1 25397U 98043D 15127.41882446 .00000067 00000-0 47973-4 0 9990 2 25397 098.5163 079.1468 0002471 087.1169 026.5710 14.23540720873996 NO-44 1 26931U 01043C 15127.52468100 .00000138 00000-0 84908-4 0 9996 2 26931 067.0510 281.9808 0005957 264.9149 095.1272 14.30303692709989 SO-50 1 27607U 02058C 15127.55253742 .00000443 00000-0 62708-4 0 9994 2 27607 064.5562 322.8727 0079419 296.1943 063.1494 14.74682018665293 CO-55 1 27844U 03031E 15127.53709832 .00000286 00000-0 14958-3 0 9991 2 27844 098.6960 136.6432 0010820 062.3063 090.3415 14.21783203614667 CO-57 1 27848U 03031J 15127.03757117 .00000237 00000-0 12817-3 0 9997 2 27848 098.7057 136.0367 0010788 070.1414 358.6313 14.21432175614509 AO-51 1 28375U 04025K 15126.80650185 .00000264 00000-0 90641-4 0 9990 2 28375 098.2900 068.4461 0084067 094.4871 266.5928 14.41643313570530 CP3 1 31129U 07012N 15127.45286743 .00001335 00000-0 29585-3 0 9995 2 31129 097.9772 094.9920 0098276 080.8310 034.8766 14.55724969427193 CO-65 1 32785U 08021C 15126.86731507 .00001694 00000-0 19598-3 0 9993 2 32785 097.6532 171.9462 0013060 196.6078 270.6540 14.86744108380093 PRISM 1 33493U 09002B 15127.81904654 .00003240 00000-0 31702-3 0 9991 2 33493 098.2519 323.2621 0017555 101.6427 258.6791 14.92974334340552 SOHLA-1 1 33496U 09002E 15127.29562398 .00000538 00000-0 95321-4 0 9996 2 33496 098.2058 254.8452 0005128 299.1174 091.1520 14.71326128337161 TISAT-1 1 36799U 10035E 15127.48542184 .00003004 00000-0 33074-3 0 9992 2 36799 098.0138 227.3987 0012349 346.3826 143.0588 14.88287264260900 STUDSAT 1 36801U 10035G 15127.60811334 .00015934 00000-0 96680-3 0 9993 2 36801 098.0591 244.8560 0004950 250.9322 109.1882 15.10549607261840 ALMASAT-1 1 38078U 12006B 15127.52810101 .00038691 00000-0 63561-3 0 9990 2 38078 069.4568 342.8109 0489045 313.4493 042.7375 14.76845421169039 CUBEBUG-1 1 39153U 13018D 15127.22658541 .00001546 00000-0 21537-3 0 9990 2 39153 098.0175 211.7100 0017865 029.9726 330.2504 14.79118613109421 ESTCUBE-1 1 39161U 13021C 15127.79997175 .00001012 00000-0 17266-3 0 9996 2 39161 098.0715 211.0822 0011245 085.3926 274.8561 14.71077388107304 DUCHIFAT-1 1 40021U 14033M 15127.69109347 .00002437 00000-0 27268-3 0 9997 2 40021 097.9584 028.1654 0013040 324.3572 035.6783 14.87804946 47780 NANOSATCBR1 1 40024U 14033Q 15127.67021503 .00002046 00000-0 23210-3 0 9994 2 40024 097.9554 027.9675 0012348 324.3109 035.7346 14.87418263 47774 DTUSAT-2 1 40030U 14033W 15127.65732447 .00001794 00000-0 20828-3 0 9996 2 40030 097.9549 027.6315 0011444 317.1102 042.9228 14.86616154 47768 ANTELSAT 1 40034U 14033AA 15127.68269901 .00001208 00000-0 19287-3 0 9990 2 40034 097.9480 020.6117 0058893 249.4710 110.0167 14.72605101 47337 MET-2/21 1 22782U 93055A 15126.88445985 .00000064 00000-0 43904-4 0 9993 2 22782 082.5476 276.4402 0023589 078.0974 085.9434 13.83768047 94881 OKEAN-4 1 23317U 94066A 15126.83460169 .00001353 00000-0 14927-3 0 9991 2 23317 082.5357 124.2719 0021879 105.6326 327.9533 14.86584282111175 NOAA-14 1 23455U 94089A 15127.45308892 .00000034 00000-0 40824-4 0 9993 2 23455 098.7526 209.7413 0009278 189.8876 298.9241 14.14037968 49772 NOAA-15 1 25338U 98030A 15127.51984260 .00000171 00000-0 91240-4 0 9991 2 25338 098.7719 126.1306 0009463 289.0208 070.9946 14.25611973883041 RESURS 1 25394U 98043A 15126.98032192 -.00000011 00000-0 13592-4 0 9993 2 25394 098.4616 083.5576 0002340 059.7546 010.0528 14.24455684874411 FENGYUN1 1 25730U 99025A 15126.82726483 .00001444 00000-0 79330-3 0 9995 2 25730 098.9423 091.7082 0017323 269.1384 119.7783 14.13283210823217 OKEAN-0 1 25860U 99039A 15127.51841005 .00000743 00000-0 11542-3 0 9991 2 25860 098.0906 095.5093 0002003 091.2173 022.6978 14.75996373849980 NOAA-16 1 26536U 00055A 15127.52307114 .00000038 00000-0 44368-4 0 9991 2 26536 098.9453 193.5333 0010264 353.7638 006.3405 14.13092030753913 NOAA-17 1 27453U 02032A 15127.49104932 .00000074 00000-0 49401-4 0 9999 2 27453 098.3379 115.5072 0010681 306.6784 053.3414 14.24878109668861 NOAA-18 1 28654U 05018A 15127.46505233 .00000172 00000-0 11870-3 0 9993 2 28654 099.1825 119.1187 0015388 076.0355 284.2526 14.12189148513322 NOAA-19 1 33591U 09005A 15127.49035146 .00000250 00000-0 16112-3 0 9994 2 33591 098.9867 077.2787 0012994 286.8608 073.1138 14.11925784321743 HUBBLE 1 20580U 90037B 15127.13194493 .00002306 00000-0 13755-3 0 9999 2 20580 028.4701 064.8336 0003036 152.7648 325.8209 15.07304698173614 ISS 1 25544U 98067A 15127.88146993 .00015718 00000-0 23102-3 0 9997 2 25544 051.6452 285.3212 0006536 277.8061 238.1372 15.55639371941767 CO-58 1 28895U 05043F 15127.49175362 .00000920 00000-0 18881-3 0 9997 2 28895 097.8220 317.3917 0018423 067.7931 292.5224 14.62723971507644 FALCON 1 30776U 07006E 15127.71422169 .00012130 00000-0 49597-3 0 9998 2 30776 035.4287 254.7221 0001989 285.9554 219.1301 15.23603869450124 MAST 1 31126U 07012K 15127.17959817 .00000985 00000-0 22135-3 0 9994 2 31126 097.9572 097.0840 0092427 064.1622 001.7653 14.55993992427525 CAPE1 1 31130U 07012P 15126.86553620 .00001230 00000-0 27501-3 0 9992 2 31130 097.9788 093.9144 0098967 084.4522 276.7954 14.55406175426877 COMPASS 1 32787U 08021E 15126.45432222 .00002641 00000-0 27579-3 0 9993 2 32787 097.6546 175.4035 0013319 184.9646 175.1442 14.90473997380295 AAUSAT2 1 32788U 08021F 15126.61134568 .00004229 00000-0 42736-3 0 9990 2 32788 097.6558 176.9993 0012830 181.2004 178.9186 14.91491274380401 DO-64 1 32789U 08021G 15127.49466414 .00008517 00000-0 70098-3 0 9992 2 32789 097.6770 188.1627 0011003 156.7755 317.2451 14.99299913380988 CO-66 1 32791U 08021J 15126.55269323 .00002437 00000-0 26697-3 0 9992 2 32791 097.6551 173.4695 0013764 191.0761 169.0155 14.88586893380129 RS-30 1 32953U 08025A 15127.59043403 .00000010 00000-0 -13620-7 0 9992 2 32953 082.5081 359.4955 0018522 165.7818 194.3795 12.43059176315568 METEOR-M 1 35865U 09049A 15127.60954958 .00000120 00000-0 73488-4 0 9998 2 35865 098.5040 169.3982 0001567 221.7605 138.3452 14.22020074292444 RS-38 1 35869U 09049E 15127.57998578 .00000045 00000-0 39151-4 0 9999 2 35869 098.4962 169.0224 0003698 227.2071 132.8813 14.22290696292484 JUGNU 1 37839U 11058B 15127.25598294 .00000454 00000-0 10055-3 0 9992 2 37839 019.9610 090.6487 0018799 315.7373 180.0121 14.12458784184421 SRMSAT 1 37841U 11058D 15127.35483487 .00000391 00000-0 69984-4 0 9999 2 37841 019.9711 115.9195 0011662 243.4947 261.5977 14.10472075184183 RAX-2 1 37853U 11061D 15127.48437792 .00010553 00000-0 64807-3 0 9997 2 37853 101.7139 318.5303 0198503 194.5736 248.6745 14.95471527191028 AUBIESAT 1 37854U 11061E 15127.51002766 .00011539 00000-0 68003-3 0 9998 2 37854 101.7248 321.8443 0192799 189.5121 225.8549 14.97571384191130 HRBE 1 37855U 11061F 15126.74307609 .00012200 00000-0 72951-3 0 9990 2 37855 101.7185 319.4086 0197706 194.1372 165.4253 14.96397167190954 HORYU-2 1 38340U 12025D 15126.84972298 .00001744 00000-0 27220-3 0 9994 2 38340 098.3098 095.7261 0010827 223.2541 136.7817 14.74171355159448 RS-40 1 38735U 12041C 15127.69180151 .00000040 00000-0 21992-3 0 9991 2 38735 082.4752 085.2273 0015508 270.2593 089.6706 12.42567510125883 PROITERES 1 38756U 12047B 15127.78992181 .00000731 00000-0 11448-3 0 9996 2 38756 098.2186 226.3958 0013582 069.7687 290.4991 14.75759178143042 BEESAT-3 1 39134U 13015E 15127.53690995 .00008767 00000-0 51767-3 0 9999 2 39134 064.8721 187.5253 0032494 258.1653 101.5825 15.11622035112555 BEESAT-2 1 39136U 13015G 15127.48331313 .00007231 00000-0 44725-3 0 9992 2 39136 064.8728 189.7746 0033184 257.4220 102.3190 15.10088385112517 ZACUBE-1 1 39417U 13066B 15126.81139899 .00001458 00000-0 19602-3 0 9992 2 39417 097.7334 190.8763 0059094 271.2789 088.1654 14.79578388 78519 TRITON-1 1 39427U 13066M 15127.13738021 .00001028 00000-0 17655-3 0 9990 2 39427 097.7190 180.2960 0114605 298.5323 060.4382 14.66550471 77843 DELFIN3XT 1 39428U 13066N 15127.10601713 .00001764 00000-0 30148-3 0 9994 2 39428 097.7192 178.6492 0123234 303.2634 055.6811 14.65223283 77721 GOMX-1 1 39430U 13066Q 15127.85787405 .00000883 00000-0 17310-3 0 9999 2 39430 097.7120 173.8728 0153041 317.2894 041.6483 14.57970931 77502 MO-76 1 39436U 13066W 15126.66700141 .00031210 00000-0 21962-2 0 9990 2 39436 097.7475 202.6255 0022740 239.2444 120.6543 15.04781368 79247 LO-74 1 39440U 13066AA 15127.14545093 .00001316 00000-0 19591-3 0 9992 2 39440 097.7280 186.8805 0080745 280.5949 078.6173 14.74409672 78283 PUCPSAT-1 1 39442U 13066AC 15127.68482104 .00003083 00000-0 33574-3 0 9996 2 39442 097.7414 198.6337 0031844 255.8786 103.8892 14.88377700 77846 SPROUT 1 39770U 14029E 15127.11320993 .00001305 00000-0 16420-3 0 9991 2 39770 097.8700 224.4999 0009001 344.4528 015.6411 14.83715285 51545 POPSAT-HIP1 1 40028U 14033U 15127.81141614 .00001612 00000-0 18672-3 0 9994 2 40028 097.9592 028.0812 0013645 320.2303 039.7953 14.86854007 47785 EO-80 1 40032U 14033Y 15127.66414205 .00001536 00000-0 17955-3 0 9999 2 40032 097.9560 027.6509 0011464 316.9929 043.0394 14.86554400 47765 VELOX-1 1 40057U 14034E 15127.85939882 .00001709 00000-0 25769-3 0 9995 2 40057 098.2178 205.3014 0011525 015.5876 344.5684 14.75671824 45934 DAURIA DX 1 1 40071U 14037C 15127.70774078 .00000840 00000-0 11768-3 0 9991 2 40071 098.3595 197.4526 0008974 019.0549 341.1003 14.80315747 44801 UKUBE-1 1 40074U 14037F 15127.79218233 .00001756 00000-0 22840-3 0 9999 2 40074 098.3606 198.1949 0005241 032.2672 327.8860 14.82026503 44850 HODOYOSHI-1 1 40299U 14070B 15127.77317888 .00003468 00000-0 16874-3 0 9991 2 40299 097.4573 209.7977 0011448 273.3484 182.6875 15.19004383 27685 CHUBUSAT-1 1 40300U 14070C 15127.80979975 .00004080 00000-0 20733-3 0 9999 2 40300 097.4545 209.2417 0020854 274.5489 180.8848 15.17251837 27653 QSAT-EOS 1 40301U 14070D 15127.76511837 .00007111 00000-0 36584-3 0 9993 2 40301 097.4506 208.6193 0030982 274.5274 181.8447 15.16326646 27612 TSUBAME 1 40302U 14070E 15127.78726441 .00003391 00000-0 19440-3 0 9993 2 40302 097.4480 207.7798 0041837 277.6635 179.0310 15.12523371 27563 FIREBIRD FU3 1 40377U 15003B 15127.81477533 .00011677 00000-0 58716-3 0 9996 2 40377 099.1210 153.8279 0160717 025.9273 334.9932 15.06805061 14471 FIREBIRD FU4 1 40378U 15003C 15127.81316137 .00011625 00000-0 58381-3 0 9990 2 40378 099.1197 153.8281 0160911 025.8686 335.0472 15.06825136 14478 GRIFEX 1 40379U 15003D 15127.56719940 .00008886 00000-0 45394-3 0 9997 2 40379 099.1211 153.4985 0161641 028.2258 332.7607 15.06277430 14434 LAMBDA-SAT 1 40458U 98067GB 15127.83347472 .00874152 32901-3 26276-2 0 9995 2 40458 051.6346 279.2741 0017411 300.2413 060.3085 15.91418768 19807 /EX
